Regional Weather Roundup
Issued by NWS

Home | Current Version | Previous Version | Graphics & Text | Print | Product List | Glossary Off
Versions: 1 2 3 4 5 6 7 8 9 10 11 12 13 14 15 16 17 18 19 20 21 22 23 24 25 26 27 28 29 30 31 32 33 34 35 36 37 38 39 40 41 42 43 44 45 46 47 48 49 50

000
ASUS43 KMKX 240300
RWRWI

WISCONSIN REGIONAL WEATHER ROUNDUP
NATIONAL WEATHER SERVICE MILWAUKEE/SULLIVAN WI
1000 PM CDT SAT SEP 23 2017

NOTE: "FAIR" INDICATES FEW OR NO CLOUDS BELOW 12,000 FEET WITH NO
SIGNIFICANT WEATHER AND/OR OBSTRUCTIONS TO VISIBILITY.

WIZ001-002-006>008-014>016-023>028-240400-
NORTHWEST WISCONSIN

CITY           SKY/WX    TMP DP  RH WIND       PRES   REMARKS
SUPERIOR ARPT  CLOUDY    68  67  97 N5        29.98S
ASHLAND        MOCLDY    69  67  93 N6        29.99R
HAYWARD        PTCLDY    70  68  93 N3        29.99R
SIREN          CLOUDY    73  69  85 SE5       29.95F
CUMBERLAND     MOCLDY    73  66  78 SE5       29.98F
RICE LAKE      PTCLDY    75  67  77 SE5       30.00S
CHETEK         PTCLDY    74  69  84 SE3       29.99S
LADYSMITH      PTCLDY    74  67  79 E3        30.03R
EAU CLAIRE     NOT AVBL
MENOMONIE      PTCLDY    74  68  80 SE6       29.98R
NEW RICHMOND   CLOUDY    74  66  76 SE3       29.96F
OSCEOLA        CLOUDY    78  68  71 SE7       29.96F HX  80
$$

WIZ003>005-009-010-017-018-240400-
NORTH CENTRAL WISCONSIN

CITY           SKY/WX    TMP DP  RH WIND       PRES   REMARKS
MANITOWISH WTR CLOUDY    66  66 100 CALM      30.04S
ARBOR VITAE    PTCLDY    72  69  89 CALM      30.04S
WOODRUFF       PTCLDY    72  69  89 CALM      30.04S
RHINELANDER    MOCLDY    69  66  90 CALM      30.06S
EAGLE RIVER    MOCLDY    69  65  87 CALM      30.05S
LAND O LAKES   PTCLDY    66  65  99 CALM      30.07S FOG
PHILLIPS       CLOUDY    69  67  94 S5        30.03S
TOMAHAWK       CLOUDY    66  64  92 CALM      30.06S
MEDFORD        PTCLDY    70  65  82 SE3       30.05R
MERRILL        CLOUDY    66  66 100 CALM      30.05S
$$

WIZ029-030-035-036-043>047-240400-
CENTRAL WISCONSIN

CITY           SKY/WX    TMP DP  RH WIND       PRES   REMARKS
WAUSAU         PTCLDY    71  66  84 SE3       30.03R
MOSINEE        CLEAR     73  66  78 SE3       30.06R
MARSHFIELD     CLOUDY    72  64  76 CALM      30.04R
STEVENS POINT  PTCLDY    68  66  95 CALM      30.04S
WAUPACA        CLEAR     72  69  89 CALM      30.04R
WAUTOMA        PTCLDY    68  67  96 CALM      30.04R
WISC RAPIDS    CLEAR     75  65  70 S3        30.04R
CAMP DOUGLAS   NOT AVBL
$$

WIZ011>013-019>022-031-037>040-048>050-240400-
NORTHEAST WISCONSIN

CITY           SKY/WX    TMP DP  RH WIND       PRES   REMARKS
ANTIGO         PTCLDY    70  66  86 S5        30.07R
SHAWANO        PTCLDY    77  66  68 S3        30.03R
OCONTO         CLOUDY    74  68  81 S3        30.03S
STURGEON BAY   CLEAR     75  66  73 S8        30.05S
GREEN BAY      CLEAR     76  68  76 S8        30.04S
MANITOWOC      CLEAR     69  66  90 CALM      30.06R
APPLETON       PTCLDY    75  63  64 SE7       30.03S
CLINTONVILLE   PTCLDY    73  64  73 S3        30.03S
OSHKOSH        CLEAR     71  67  87 S7        30.04S
$$

WIZ032>034-041-042-053>061-240400-
SOUTHWEST WISCONSIN

CITY           SKY/WX    TMP DP  RH WIND       PRES   REMARKS
LA CROSSE      CLEAR     82  66  58 S8        29.98R HX  84
SPARTA         CLEAR     71  66  84 CALM      30.02R
VIROQUA        CLEAR     77  64  64 SE7       30.03S
BOSCOBEL       CLEAR     69  65  86 CALM      30.01R
PRAIRIE DU CHI CLEAR     76  64  65 CALM      30.00R
PLATTEVILLE    CLEAR     76  64  66 SE6       30.03S
$$

WIZ056-057-062-063-064-067-068-240400-
SOUTH CENTRAL WISCONSIN

CITY           SKY/WX    TMP DP  RH WIND       PRES   REMARKS
REEDSBURG      CLEAR     70  67  88 CALM      30.03R
BARABOO/DELLS  CLEAR     73  62  67 CALM      30.04R
LONE ROCK      NOT AVBL
MINERAL POINT  CLEAR     79  61  53 CALM      30.04S HX  80
MADISON        CLEAR     78  66  66 S8        30.03S HX  80
MIDDLETON      CLEAR     70  66  88 E7        30.04S
WATERTOWN      CLEAR     74  67  77 SE5       30.05R
MONROE         CLEAR     79  61  53 SE8       30.05S HX  80
JANESVILLE     CLEAR     75  64  69 CALM      30.04S
$$

WIZ051-052-058>065-066-070>072-240400-
SOUTHEAST WISCONSIN

CITY           SKY/WX    TMP DP  RH WIND       PRES   REMARKS
MILWAUKEE      CLEAR     76  66  71 S6        30.05S
WAUKESHA       NOT AVBL
MILWAUKEE/TIMM CLEAR     73  59  60 CALM      30.06S
RACINE         CLEAR     72  67  84 S3        30.07S
BURLINGTON     CLEAR     69  66  92 CALM      30.06S
KENOSHA        CLEAR     76  65  68 SE6       30.06S
FOND DU LAC    CLEAR     73  65  75 S3        30.05R
SHEBOYGAN      CLEAR     67  67 100 CALM      30.06R
WEST BEND        N/A     70  64  83 CALM      30.06S
JUNEAU         CLEAR     73  65  78 SE5       30.07R
$$

LSZ147-162-240400-
LAKE SUPERIOR

STATION/POSITION TIME  TEMP    WIND        PRES    WAVE
                       AIR SEA DIR/SP/G            HT/PER
                 (UTC) (F)     (DEG/KT/KT) (MB)    (FT/S)
W MID LAKE BUOY  0150   61 56  140/  6/  8 1014.8R   1
DEVILS ISLAND    0200   70      40/  8/  8 1014.8F
PORT WING        0040   75     280/  4/  6 1013.9
SAXON HARBOR     0230   70      CALM  /  3 1014.2S
$$

LMZ867-665-643>646-240400-
LAKE MICHIGAN

STATION/POSITION TIME  TEMP    WIND        PRES    WAVE
                       AIR SEA DIR/SP/G            HT/PER
                 (UTC) (F)     (DEG/KT/KT) (MB)    (FT/S)
S GREEN BAY BUOY 0200   74 70  190/  6/  8 1016.6S
N MID LAKE BUOY  0150   69 67  190/  8/ 10 1017.7R   2/ 4
NORTHPORT PIER   0240   75     170/  4/  8 1016.9R
KEWAUNEE LAKESHO 0230   69     180/  5/  6 1016.8R
SHEBOYGAN LAKESH 0200   74     190/  6/  6 1017.0F
PORT WASHINGTON  0230   72     170/  2/  3 1018.3S
ATWATER BUOY     0109   69 66  150/  6/  6 1017.8R
MILWAUKEE LAKESH 0230   71        CALM       N/A
S MID LAKE BUOY  0150   74 72   90/  6/  6 1017.8R   0
KENOSHA   LAKESH 0200   77     190/  6/  8 1017.3
$$

TC  - TEMPERATURE IN CELSIUS
VSB - VISIBILITY IN STATUTE MILES
WCI - WIND CHILL INDEX
HX  - HEAT INDEX




USA.gov is the U.S. government's official web portal to all federal, state and local government web resources and services.